This is the latest recevied weather packets stored in our database for station/object WD0REW. If no packets are shown the sender has not sent any weather packets the latest 10 day(s).
| Time | Temp. | Humidity | Pressure | Rain* | Wind** | Luminosity | Snow |
|---|---|---|---|---|---|---|---|
| 1777942435 | 23.33° C | 49% | 1006.1 hPa | 0 mm | - | 4 W/m² | - |
| 1777942133 | 23.33° C | 49% | 1006 hPa | 0 mm | - | 6 W/m² | - |
| 1777941829 | 23.33° C | 48% | 1006.1 hPa | 0 mm | - | 8 W/m² | - |
| 1777941527 | 23.89° C | 48% | 1006.2 hPa | 0 mm | - | 10 W/m² | - |
| 1777941224 | 23.89° C | 48% | 1006.2 hPa | 0 mm | - | 14 W/m² | - |
| 1777940920 | 23.89° C | 48% | 1006.1 hPa | 0 mm | - | 17 W/m² | - |
| 1777940617 | 23.89° C | 48% | 1005.9 hPa | 0 mm | - | 17 W/m² | - |
| 1777940315 | 23.89° C | 47% | 1005.9 hPa | 0 mm | - | 16 W/m² | - |
| 1777940012 | 24.44° C | 46% | 1006 hPa | 0 mm | - | 18 W/m² | - |
| 1777939709 | 24.44° C | 46% | 1005.8 hPa | 0 mm | - | 24 W/m² | - |
| 1777939407 | 24.44° C | 46% | 1006 hPa | 0 mm | - | 26 W/m² | - |
| 1777939103 | 24.44° C | 45% | 1006.1 hPa | 0 mm | - | 25 W/m² | - |
| 1777938800 | 25° C | 46% | 1005.9 hPa | 0 mm | - | 25 W/m² | - |
| 1777938497 | 25° C | 44% | 1006.3 hPa | 0 mm | - | 25 W/m² | - |
| 1777938195 | 25° C | 44% | 1005.9 hPa | 0 mm | - | 27 W/m² | - |
| 1777937891 | 25° C | 45% | 1005.8 hPa | 0 mm | - | 28 W/m² | - |
| 1777937587 | 25° C | 43% | 1005.9 hPa | 0 mm | - | 32 W/m² | - |
| 1777937284 | 25° C | 44% | 1005.9 hPa | 0 mm | - | 31 W/m² | - |
| 1777936981 | 25.56° C | 44% | 1005.9 hPa | 0 mm | - | 33 W/m² | - |
| 1777936678 | 25.56° C | 44% | 1006 hPa | 0 mm | - | 36 W/m² | - |
| 1777936374 | 25.56° C | 43% | 1005.8 hPa | 0 mm | - | 35 W/m² | - |
| 1777936070 | 25.56° C | 43% | 1006.1 hPa | 0 mm | - | 37 W/m² | - |
| 1777935768 | 25.56° C | 44% | 1006 hPa | 0 mm | - | 37 W/m² | - |
| 1777935467 | 25.56° C | 43% | 1006 hPa | 0 mm | - | 38 W/m² | - |
| 1777935163 | 25.56° C | 42% | 1006 hPa | 0 mm | - | 51 W/m² | - |
* Rain latest hour (hover to see other rain measurements)
** Current wind speed in m/s (hover to see current wind gust speed)